SCP
0 0 0 0 0 0 0 -0 -0 0 0 0 0 0 0 0 0 0 0 1 1 1 2 2 3 3 3 2 1 1 1 1 1 1 1 1 1 1 1 1 1 1 1 1
0 0 0 0 -0 0 0 0 0 0 0 0 0 0 0 0 0 0 1 1 1 1 1 1 0 0 0 0 0 0 0 0 1 1 1 2 1 1 1 1 1 1 0 0
0 0 0 0 0 0 0 0 0 0 0 0 0 0 0 0 0 1 1 1 1 1 0 0 0 0 0 0 0 0 0 0 0 0 0 0 0 0 1 1 0 0 0 0
0 0 0 0 0 0 0 0 0 0 0 0 0 0 0 0 0 0 0 0 0 0 0 0 0 0 0 0 0 0 0 0 0 0 0 0 0 0 0 0 0 0 0 0
0 0 0 0 0 0 0 0 0 0 0 0 0 0 0 0 0 0 0 0 1 1 0 0 0 0 0 0 0 0 0 0 0 0 0 0 0 0 0 0 0 0 0 0
0 0 0 0 0 0 0 0 0 0 0 0 0 0 1 0 0 0 0 0 0 0 0 1 1 1 0 0 0 0 0 0 0 0 0 0 0 0 0 0 0 0 0 0
0 0 0 -0 0 0 0 0 0 0 0 0 0 1 1 1 1 1 1 1 0 0 0 1 1 0 0 0 0 0 0 0 0 0 0 0 0 0 0 0 0 0 0 0
0 0 0 0 0 0 0 0 0 0 0 0 1 1 1 0 1 1 0 0 0 0 0 1 0 0 0 0 0 0 0 0 0 0 0 0 0 0 0 0 0 0 1 0
0 0 0 0 0 0 0 0 0 0 1 1 1 1 0 0 0 0 0 0 0 0 0 0 0 0 0 0 0 0 0 0 0 0 0 0 0 0 -0 0 0 0 0 0
0 0 0 0 0 0 0 0 0 0 0 0 0 0 0 0 0 0 0 0 0 0 0 0 0 0 0 0 0 0 0 0 0 0 0 0 0 0 0 0 0 0 0 0
0 0 0 0 0 0 0 0 0 0 0 0 0 0 0 0 0 0 0 0 0 0 0 0 0 0 0 0 0 0 0 0 0 0 0 0 0 0 0 0 0 0 0 0
0 0 0 0 0 0 0 0 0 0 0 0 0 0 0 0 0 0 0 0 0 0 0 0 0 0 0 0 0 0 0 0 0 0 0 0 0 0 0 0 0 0 0 0
0 0 0 0 0 0 0 0 0 0 0 0 0 0 0 0 0 0 0 0 0 0 0 0 0 0 0 0 0 0 0 0 0 0 0 0 0 0 0 0 0 0 0 0
0 0 0 0 0 0 0 0 0 0 0 0 0 0 0 0 0 0 0 0 0 0 0 0 0 0 0 0 0 0 0 0 0 0 0 0 0 0 0 0 -0 0 0 0
0 0 0 0 0 0 0 0 0 0 0 0 0 0 0 0 0 0 0 0 0 0 0 0 0 0 0 0 0 0 0 0 0 0 0 0 0 0 0 0 0 0 0 0
0 0 0 0 0 0 0 0 0 0 0 0 0 0 0 0 0 0 0 0 0 0 0 0 0 0 0 0 0 0 0 0 0 0 0 0 0 -0 -0 0 -0 0 0 0
0 0 0 0 0 0 0 0 0 0 0 0 0 0 0 0 0 0 0 0 0 0 0 0 0 0 0 0 0 0 0 0 0 0 0 0 0 -0 0 -0 -0 -0 0 -0
0 0 0 0 0 0 0 0 0 0 0 0 0 0 0 0 0 0 0 0 0 0 0 0 0 0 0 0 0 0 0 0 0 -0 0 0 0 0 0 0 -0 -0 -0 -0
0 0 0 0 0 0 0 0 0 0 0 0 0 0 0 0 0 0 0 0 0 0 0 0 0 0 0 0 0 -0 0 0 0 0 0 0 0 0 -0 -0 -0 -0 -0 -0
0 0 0 0 0 0 0 0 0 0 0 0 0 0 0 0 0 0 0 0 0 0 0 0 0 0 0 0 -0 -0 0 0 -0 0 0 0 0 0 0 -0 -0 -0 -0 -0
0 0 0 0 0 0 0 0 0 0 0 0 0 0 0 0 0 0 0 0 0 0 0 0 0 0 0 0 0 0 0 0 0 -0 -0 -0 0 0 0 0 0 0 -0 -0
0 0 0 0 0 0 0 0 0 0 0 0 0 0 0 0 0 0 0 0 0 -0 0 0 0 -0 -0 -0 0 0 0 0 -0 0 0 0 0 0 -0 0 0 0 -0 0
0 0 0 0 0 0 0 0 0 0 0 0 0 0 0 0 0 0 0 0 0 0 -0 0 0 0 0 -0 0 -0 -0 0 0 0 0 0 0 0 0 0 0 0 0 0
0 0 0 0 0 0 0 0 0 0 0 0 0 0 0 0 0 0 0 0 0 0 0 0 0 0 -0 -0 0 -0 0 0 -0 -0 -0 -0 -0 -0 0 -0 0 0 0 0
0 0 0 0 0 0 0 0 0 -0 -0 0 -0 0 0 0 0 0 0 0 0 0 0 0 0 0 -0 0 0 -0 -0 -0 -0 0 -0 -0 -0 0 0 0 0 -0 0 0
0 0 0 0 0 0 0 -0 -0 -0 0 0 0 0 0 0 0 0 0 0 0 0 0 0 0 0 0 0 -0 -0 -0 0 0 0 0 0 0 0 0 0 -0 -0 -0 -0
0 0 0 0 0 -0 -0 -0 -0 -0 0 0 0 0 0 0 0 0 0 0 0 0 0 0 0 0 0 0 0 0 0 0 0 0 0 0 0 0 0 0 0 0 0 -0
Wind_Speed_500mb
36 30 29 43 37 34 32 30 24 8 8 24 17 10 12 1 1 3 8 14 20 26 26 22 18 14 10 7 4 9 4 3 7 11 16 17 17 24 28 28 27 31 31 30
34 34 26 21 38 39 33 24 12 13 5 34 16 7 5 3 3 12 15 21 27 31 30 27 25 22 18 13 9 6 2 4 7 11 14 15 20 24 25 24 25 24 26 30
32 26 27 28 23 39 25 18 20 14 10 20 8 6 2 3 3 16 18 19 23 23 22 20 18 13 12 9 5 2 3 6 8 11 14 18 22 25 28 27 30 31 32 34
26 22 31 5 18 11 22 17 7 11 11 8 8 8 8 7 15 17 17 16 16 17 17 14 12 11 9 5 4 5 8 10 11 14 20 24 26 28 32 33 32 34 35 34
13 5 11 11 4 9 11 12 10 4 6 2 8 10 13 13 14 16 15 14 13 12 11 10 8 6 4 5 8 11 11 12 16 21 24 25 24 24 28 29 32 36 36 42
14 12 3 15 20 14 9 12 7 4 5 8 13 15 12 21 16 14 13 10 6 3 3 3 5 5 6 9 12 11 13 17 21 24 23 22 22 24 26 30 36 36 37 40
5 15 20 23 23 13 8 6 6 3 6 14 12 13 16 14 12 9 6 3 1 4 6 6 7 7 10 13 13 13 19 21 24 21 20 23 19 24 29 36 42 43 41 44
11 13 9 1 13 11 11 9 5 1 2 6 13 7 6 8 9 7 5 5 5 10 12 10 10 12 14 15 15 18 22 22 20 21 24 26 28 31 34 41 47 48 46 41
12 7 12 11 19 15 9 5 7 5 5 1 8 9 9 8 7 7 8 10 12 15 15 16 13 12 17 19 21 25 24 22 23 28 30 31 35 38 50 33 49 47 50 52
8 12 15 11 12 11 6 6 4 4 4 7 9 10 11 8 7 9 13 16 15 15 18 19 20 19 19 24 23 23 26 29 35 38 40 40 41 45 41 44 42 51 58 63
4 15 11 12 6 3 4 5 8 7 9 11 9 11 8 9 10 13 14 15 14 15 19 22 23 22 24 26 27 30 32 35 41 45 44 45 41 41 41 42 46 61 69 65
11 19 11 10 11 9 12 18 19 19 15 13 10 11 8 11 8 8 11 14 17 21 25 27 28 30 32 34 36 39 37 43 46 45 46 48 43 46 49 60 69 58 48 45
12 10 10 14 20 23 28 28 29 21 18 18 13 11 8 6 6 8 14 17 21 23 25 28 29 31 32 33 34 31 35 40 44 47 40 36 55 47 58 61 55 50 45 41
18 23 26 26 30 28 26 24 17 17 18 17 16 12 10 7 6 9 12 14 16 19 22 26 28 31 32 33 25 29 36 39 36 34 44 48 54 57 51 45 47 42 38 42
26 15 20 24 24 24 25 21 21 21 21 18 18 15 11 8 9 13 16 18 20 23 27 28 30 37 34 25 23 31 35 38 41 40 49 48 40 36 38 40 39 41 33 29
29 31 33 34 31 25 19 17 22 25 22 17 13 11 11 11 16 20 22 23 26 28 33 35 36 35 27 19 23 24 37 40 41 33 33 30 31 33 36 37 36 31 26 24
22 23 17 21 17 16 17 8 8 10 6 2 7 11 18 20 25 28 29 31 33 38 40 41 35 28 29 25 22 30 28 21 27 20 25 22 27 26 28 27 28 22 14 13
3 6 9 8 10 7 8 6 3 3 6 10 16 22 25 28 32 35 36 34 36 37 32 31 23 28 33 23 15 15 17 15 9 10 16 21 23 25 30 29 25 23 31 34
10 10 11 13 13 9 5 6 9 13 17 20 23 25 27 29 29 28 26 25 26 28 24 9 15 15 9 17 18 6 5 4 6 11 14 21 27 32 38 40 41 43 43 34
13 11 11 11 12 12 11 13 17 19 19 20 24 25 25 24 25 25 26 25 23 23 17 13 11 10 8 15 3 4 2 6 7 4 7 15 16 14 23 28 26 27 22 19
7 8 10 12 12 13 14 14 19 21 22 22 26 27 27 26 21 18 18 17 19 15 8 2 7 7 4 3 2 8 3 3 1 10 3 10 16 13 6 11 11 16 14 16
7 9 12 14 14 13 15 24 17 19 21 21 21 23 24 23 17 23 16 17 12 8 7 3 5 7 8 11 1 4 6 2 7 3 6 12 10 9 12 11 13 13 15 16
8 11 11 10 13 14 14 11 15 16 15 18 18 21 18 8 8 8 8 2 17 17 13 7 5 11 11 5 2 11 8 9 8 11 12 10 6 10 15 12 15 15 13 19
6 7 7 9 11 11 11 13 12 10 14 17 18 20 13 5 6 12 21 28 18 23 12 3 8 14 16 25 22 21 15 14 12 13 14 14 13 14 12 12 13 13 13 13
7 6 6 8 7 10 11 9 8 12 10 11 15 21 22 22 23 27 24 24 19 22 22 23 26 38 28 27 23 19 16 17 17 18 15 14 13 11 10 12 11 9 11 12
4 4 4 2 6 6 6 8 11 9 9 11 13 14 15 21 26 24 25 20 26 23 28 35 29 30 26 22 18 18 18 18 20 21 17 16 15 13 13 11 10 11 10 8
4 2 1 6 5 7 5 7 10 11 15 15 18 20 22 22 25 24 25 29 38 34 29 26 24 23 22 20 20 21 23 30 28 26 26 26 26 25 20 11 2 5 7 11
Wind_Direction_500mb
256 265 272 199 213 210 216 222 255 133 300 122 84 84 73 270 304 43 75 77 86 90 95 100 101 117 146 142 163 176 176 234 291 321 314 302 307 306 303 302 304 300 304 307
243 250 267 202 223 208 211 232 266 274 178 106 116 53 36 10 270 123 106 108 104 101 100 100 105 112 114 112 114 135 204 282 306 313 315 323 316 315 308 309 301 305 308 315
224 223 242 247 227 207 234 239 229 237 97 98 117 61 343 123 132 120 125 119 107 105 106 107 108 105 96 93 79 35 329 323 329 330 330 322 318 313 311 319 316 314 317 317
230 199 223 163 351 240 235 197 204 78 77 45 46 103 161 184 147 135 132 120 110 109 105 102 95 85 80 75 34 338 319 316 323 322 319 314 311 309 320 321 323 322 318 315
233 219 140 120 146 175 203 186 173 158 106 43 99 157 156 161 144 137 122 112 105 104 92 94 89 74 40 327 313 307 309 307 310 319 321 319 316 323 318 318 318 320 319 319
224 269 294 348 29 7 102 187 97 198 246 170 171 234 126 156 149 144 130 116 99 59 33 25 38 32 354 308 306 301 305 309 313 317 317 317 315 319 318 317 317 314 314 315
231 274 86 169 253 289 227 41 4 270 228 188 207 55 118 156 160 165 148 141 18 328 323 316 321 336 322 304 294 300 305 306 307 307 313 314 313 314 311 312 303 300 300 307
265 253 227 358 184 273 73 82 37 289 173 212 124 140 166 191 183 188 212 245 300 295 296 294 294 315 308 301 292 296 299 297 298 303 305 307 306 299 297 302 305 302 302 304
360 73 87 43 71 92 85 77 68 75 58 162 204 216 222 229 226 247 266 286 287 289 288 291 277 294 303 300 294 294 294 292 295 301 300 301 293 299 295 311 316 313 314 315
184 130 121 117 98 112 97 55 34 350 300 276 260 242 264 250 270 274 287 291 291 293 290 291 290 294 295 298 299 299 298 296 296 297 292 297 304 287 307 308 312 316 310 311
264 147 149 157 143 156 235 280 289 276 268 264 257 256 244 272 277 288 300 297 294 293 296 295 291 288 292 296 298 295 297 300 301 295 303 298 298 310 307 311 312 311 307 306
57 52 355 54 348 321 287 278 284 271 231 239 261 263 259 268 285 291 296 294 291 291 294 295 291 290 292 295 296 295 292 297 305 306 301 306 310 307 304 308 314 310 306 305
352 357 328 306 304 291 288 286 282 243 247 257 239 240 239 247 274 285 302 297 294 296 297 296 296 297 298 298 295 297 299 300 303 308 306 309 315 308 311 311 306 308 314 316
314 310 299 296 298 295 288 282 257 236 250 247 241 225 232 243 284 305 308 307 304 305 302 301 302 302 304 301 299 306 302 307 306 304 316 315 314 316 311 307 313 316 321 324
292 298 301 301 294 288 280 263 236 244 252 241 232 236 246 262 289 303 305 303 304 305 307 304 304 305 303 294 300 303 308 308 309 314 307 308 311 311 310 311 320 319 318 315
300 296 292 287 284 282 274 248 256 266 262 227 231 257 270 286 295 299 301 303 300 302 304 304 303 304 301 296 295 300 311 316 313 321 322 324 322 325 325 321 322 322 320 320
293 295 336 324 296 271 273 281 332 18 48 251 283 285 292 301 296 297 296 295 294 294 296 297 291 281 290 299 302 308 309 319 326 323 336 347 342 340 335 347 346 1 14 10
38 27 23 23 30 59 60 65 63 342 324 300 292 299 305 300 298 297 296 294 291 290 290 281 279 297 299 290 304 311 317 328 347 4 22 18 28 23 23 25 36 51 78 77
88 81 70 65 63 64 45 358 333 324 318 311 309 303 299 297 298 296 297 299 297 289 281 296 297 328 311 295 319 327 338 4 60 57 48 42 41 44 52 62 79 83 73 70
83 70 53 39 24 15 350 333 329 326 320 314 309 308 302 296 290 287 286 288 284 285 281 293 306 295 318 314 71 78 132 20 95 84 57 62 46 56 63 67 70 59 40 37
56 26 9 0 352 344 341 333 331 321 316 314 309 302 298 298 295 288 292 291 282 273 276 266 273 299 281 315 44 335 254 9 89 159 14 351 13 17 23 31 13 8 16 33
6 358 354 349 341 342 335 323 329 326 324 320 317 312 302 292 294 299 288 288 274 194 144 268 97 267 237 155 59 338 123 98 148 19 45 40 31 22 19 22 27 24 26 32
351 346 334 334 339 339 333 324 333 330 334 342 341 345 335 321 321 318 311 251 127 129 105 58 118 111 131 97 102 110 88 106 47 43 17 354 9 9 15 8 7 13 1 19
336 336 341 347 345 346 353 349 345 1 357 6 26 14 15 61 79 78 100 110 99 93 85 113 81 86 92 98 91 104 63 41 36 25 18 10 2 1 359 345 2 6 4 6
324 332 354 346 19 8 1 10 11 10 33 32 42 57 60 76 105 112 99 104 96 93 93 86 90 90 89 83 78 66 51 36 25 25 7 4 5 358 5 8 4 16 17 17
318 314 331 1 34 35 51 31 38 34 33 58 71 77 80 85 95 102 110 99 102 86 98 93 85 82 85 82 72 57 45 38 23 22 26 25 21 24 17 19 13 21 9 16
285 260 197 151 65 97 65 71 69 75 84 72 85 85 94 98 96 93 104 109 109 96 84 82 82 83 76 66 60 57 51 46 61 56 50 47 44 40 35 32 55 54 36 12
Wind_Speed_850mb
36 30 29 43 37 34 32 30 24 8 8 24 17 10 12 1 1 3 8 14 20 26 26 22 18 14 10 7 4 9 4 3 7 11 16 17 17 24 28 28 27 31 31 30
34 34 26 21 38 39 33 24 12 13 5 34 16 7 5 3 3 12 15 21 27 31 30 27 25 22 18 13 9 6 2 4 7 11 14 15 20 24 25 24 25 24 26 30
32 26 27 28 23 39 25 18 20 14 10 20 8 6 2 3 3 16 18 19 23 23 22 20 18 13 12 9 5 2 3 6 8 11 14 18 22 25 28 27 30 31 32 34
26 22 31 5 18 11 22 17 7 11 11 8 8 8 8 7 15 17 17 16 16 17 17 14 12 11 9 5 4 5 8 10 11 14 20 24 26 28 32 33 32 34 35 34
13 5 11 11 4 9 11 12 10 4 6 2 8 10 13 13 14 16 15 14 13 12 11 10 8 6 4 5 8 11 11 12 16 21 24 25 24 24 28 29 32 36 36 42
14 12 3 15 20 14 9 12 7 4 5 8 13 15 12 21 16 14 13 10 6 3 3 3 5 5 6 9 12 11 13 17 21 24 23 22 22 24 26 30 36 36 37 40
5 15 20 23 23 13 8 6 6 3 6 14 12 13 16 14 12 9 6 3 1 4 6 6 7 7 10 13 13 13 19 21 24 21 20 23 19 24 29 36 42 43 41 44
11 13 9 1 13 11 11 9 5 1 2 6 13 7 6 8 9 7 5 5 5 10 12 10 10 12 14 15 15 18 22 22 20 21 24 26 28 31 34 41 47 48 46 41
12 7 12 11 19 15 9 5 7 5 5 1 8 9 9 8 7 7 8 10 12 15 15 16 13 12 17 19 21 25 24 22 23 28 30 31 35 38 50 33 49 47 50 52
8 12 15 11 12 11 6 6 4 4 4 7 9 10 11 8 7 9 13 16 15 15 18 19 20 19 19 24 23 23 26 29 35 38 40 40 41 45 41 44 42 51 58 63
4 15 11 12 6 3 4 5 8 7 9 11 9 11 8 9 10 13 14 15 14 15 19 22 23 22 24 26 27 30 32 35 41 45 44 45 41 41 41 42 46 61 69 65
11 19 11 10 11 9 12 18 19 19 15 13 10 11 8 11 8 8 11 14 17 21 25 27 28 30 32 34 36 39 37 43 46 45 46 48 43 46 49 60 69 58 48 45
12 10 10 14 20 23 28 28 29 21 18 18 13 11 8 6 6 8 14 17 21 23 25 28 29 31 32 33 34 31 35 40 44 47 40 36 55 47 58 61 55 50 45 41
18 23 26 26 30 28 26 24 17 17 18 17 16 12 10 7 6 9 12 14 16 19 22 26 28 31 32 33 25 29 36 39 36 34 44 48 54 57 51 45 47 42 38 42
26 15 20 24 24 24 25 21 21 21 21 18 18 15 11 8 9 13 16 18 20 23 27 28 30 37 34 25 23 31 35 38 41 40 49 48 40 36 38 40 39 41 33 29
29 31 33 34 31 25 19 17 22 25 22 17 13 11 11 11 16 20 22 23 26 28 33 35 36 35 27 19 23 24 37 40 41 33 33 30 31 33 36 37 36 31 26 24
22 23 17 21 17 16 17 8 8 10 6 2 7 11 18 20 25 28 29 31 33 38 40 41 35 28 29 25 22 30 28 21 27 20 25 22 27 26 28 27 28 22 14 13
3 6 9 8 10 7 8 6 3 3 6 10 16 22 25 28 32 35 36 34 36 37 32 31 23 28 33 23 15 15 17 15 9 10 16 21 23 25 30 29 25 23 31 34
10 10 11 13 13 9 5 6 9 13 17 20 23 25 27 29 29 28 26 25 26 28 24 9 15 15 9 17 18 6 5 4 6 11 14 21 27 32 38 40 41 43 43 34
13 11 11 11 12 12 11 13 17 19 19 20 24 25 25 24 25 25 26 25 23 23 17 13 11 10 8 15 3 4 2 6 7 4 7 15 16 14 23 28 26 27 22 19
7 8 10 12 12 13 14 14 19 21 22 22 26 27 27 26 21 18 18 17 19 15 8 2 7 7 4 3 2 8 3 3 1 10 3 10 16 13 6 11 11 16 14 16
7 9 12 14 14 13 15 24 17 19 21 21 21 23 24 23 17 23 16 17 12 8 7 3 5 7 8 11 1 4 6 2 7 3 6 12 10 9 12 11 13 13 15 16
8 11 11 10 13 14 14 11 15 16 15 18 18 21 18 8 8 8 8 2 17 17 13 7 5 11 11 5 2 11 8 9 8 11 12 10 6 10 15 12 15 15 13 19
6 7 7 9 11 11 11 13 12 10 14 17 18 20 13 5 6 12 21 28 18 23 12 3 8 14 16 25 22 21 15 14 12 13 14 14 13 14 12 12 13 13 13 13
7 6 6 8 7 10 11 9 8 12 10 11 15 21 22 22 23 27 24 24 19 22 22 23 26 38 28 27 23 19 16 17 17 18 15 14 13 11 10 12 11 9 11 12
4 4 4 2 6 6 6 8 11 9 9 11 13 14 15 21 26 24 25 20 26 23 28 35 29 30 26 22 18 18 18 18 20 21 17 16 15 13 13 11 10 11 10 8
4 2 1 6 5 7 5 7 10 11 15 15 18 20 22 22 25 24 25 29 38 34 29 26 24 23 22 20 20 21 23 30 28 26 26 26 26 25 20 11 2 5 7 11
Wind_Direction_850mb
256 265 272 199 213 210 216 222 255 133 300 122 84 84 73 270 304 43 75 77 86 90 95 100 101 117 146 142 163 176 176 234 291 321 314 302 307 306 303 302 304 300 304 307
243 250 267 202 223 208 211 232 266 274 178 106 116 53 36 10 270 123 106 108 104 101 100 100 105 112 114 112 114 135 204 282 306 313 315 323 316 315 308 309 301 305 308 315
224 223 242 247 227 207 234 239 229 237 97 98 117 61 343 123 132 120 125 119 107 105 106 107 108 105 96 93 79 35 329 323 329 330 330 322 318 313 311 319 316 314 317 317
230 199 223 163 351 240 235 197 204 78 77 45 46 103 161 184 147 135 132 120 110 109 105 102 95 85 80 75 34 338 319 316 323 322 319 314 311 309 320 321 323 322 318 315
233 219 140 120 146 175 203 186 173 158 106 43 99 157 156 161 144 137 122 112 105 104 92 94 89 74 40 327 313 307 309 307 310 319 321 319 316 323 318 318 318 320 319 319
224 269 294 348 29 7 102 187 97 198 246 170 171 234 126 156 149 144 130 116 99 59 33 25 38 32 354 308 306 301 305 309 313 317 317 317 315 319 318 317 317 314 314 315
231 274 86 169 253 289 227 41 4 270 228 188 207 55 118 156 160 165 148 141 18 328 323 316 321 336 322 304 294 300 305 306 307 307 313 314 313 314 311 312 303 300 300 307
265 253 227 358 184 273 73 82 37 289 173 212 124 140 166 191 183 188 212 245 300 295 296 294 294 315 308 301 292 296 299 297 298 303 305 307 306 299 297 302 305 302 302 304
360 73 87 43 71 92 85 77 68 75 58 162 204 216 222 229 226 247 266 286 287 289 288 291 277 294 303 300 294 294 294 292 295 301 300 301 293 299 295 311 316 313 314 315
184 130 121 117 98 112 97 55 34 350 300 276 260 242 264 250 270 274 287 291 291 293 290 291 290 294 295 298 299 299 298 296 296 297 292 297 304 287 307 308 312 316 310 311
264 147 149 157 143 156 235 280 289 276 268 264 257 256 244 272 277 288 300 297 294 293 296 295 291 288 292 296 298 295 297 300 301 295 303 298 298 310 307 311 312 311 307 306
57 52 355 54 348 321 287 278 284 271 231 239 261 263 259 268 285 291 296 294 291 291 294 295 291 290 292 295 296 295 292 297 305 306 301 306 310 307 304 308 314 310 306 305
352 357 328 306 304 291 288 286 282 243 247 257 239 240 239 247 274 285 302 297 294 296 297 296 296 297 298 298 295 297 299 300 303 308 306 309 315 308 311 311 306 308 314 316
314 310 299 296 298 295 288 282 257 236 250 247 241 225 232 243 284 305 308 307 304 305 302 301 302 302 304 301 299 306 302 307 306 304 316 315 314 316 311 307 313 316 321 324
292 298 301 301 294 288 280 263 236 244 252 241 232 236 246 262 289 303 305 303 304 305 307 304 304 305 303 294 300 303 308 308 309 314 307 308 311 311 310 311 320 319 318 315
300 296 292 287 284 282 274 248 256 266 262 227 231 257 270 286 295 299 301 303 300 302 304 304 303 304 301 296 295 300 311 316 313 321 322 324 322 325 325 321 322 322 320 320
293 295 336 324 296 271 273 281 332 18 48 251 283 285 292 301 296 297 296 295 294 294 296 297 291 281 290 299 302 308 309 319 326 323 336 347 342 340 335 347 346 1 14 10
38 27 23 23 30 59 60 65 63 342 324 300 292 299 305 300 298 297 296 294 291 290 290 281 279 297 299 290 304 311 317 328 347 4 22 18 28 23 23 25 36 51 78 77
88 81 70 65 63 64 45 358 333 324 318 311 309 303 299 297 298 296 297 299 297 289 281 296 297 328 311 295 319 327 338 4 60 57 48 42 41 44 52 62 79 83 73 70
83 70 53 39 24 15 350 333 329 326 320 314 309 308 302 296 290 287 286 288 284 285 281 293 306 295 318 314 71 78 132 20 95 84 57 62 46 56 63 67 70 59 40 37
56 26 9 0 352 344 341 333 331 321 316 314 309 302 298 298 295 288 292 291 282 273 276 266 273 299 281 315 44 335 254 9 89 159 14 351 13 17 23 31 13 8 16 33
6 358 354 349 341 342 335 323 329 326 324 320 317 312 302 292 294 299 288 288 274 194 144 268 97 267 237 155 59 338 123 98 148 19 45 40 31 22 19 22 27 24 26 32
351 346 334 334 339 339 333 324 333 330 334 342 341 345 335 321 321 318 311 251 127 129 105 58 118 111 131 97 102 110 88 106 47 43 17 354 9 9 15 8 7 13 1 19
336 336 341 347 345 346 353 349 345 1 357 6 26 14 15 61 79 78 100 110 99 93 85 113 81 86 92 98 91 104 63 41 36 25 18 10 2 1 359 345 2 6 4 6
324 332 354 346 19 8 1 10 11 10 33 32 42 57 60 76 105 112 99 104 96 93 93 86 90 90 89 83 78 66 51 36 25 25 7 4 5 358 5 8 4 16 17 17
318 314 331 1 34 35 51 31 38 34 33 58 71 77 80 85 95 102 110 99 102 86 98 93 85 82 85 82 72 57 45 38 23 22 26 25 21 24 17 19 13 21 9 16
285 260 197 151 65 97 65 71 69 75 84 72 85 85 94 98 96 93 104 109 109 96 84 82 82 83 76 66 60 57 51 46 61 56 50 47 44 40 35 32 55 54 36 12